Time,TemperatureF,DewpointF,PressureIn,WindDirection,WindDirectionDegrees,WindSpeedMPH,WindSpeedGustMPH,Humidity,HourlyPrecipIn,Conditions,Clouds,dailyrainin,SoftwareType,DateUTC
2013-03-11 00:00:00,49.0,31.7,30.20,South,190,0.0,0.0,51,0.00,,---,0.00,VWS V14.01,2013-03-11 04:00:00,
2013-03-11 00:05:00,48.6,32.7,30.20,South,190,0.0,0.0,54,0.00,,---,0.00,VWS V14.01,2013-03-11 04:05:00,
2013-03-11 00:10:00,48.0,31.7,30.19,South,190,0.0,0.0,53,0.00,,---,0.00,VWS V14.01,2013-03-11 04:10:00,
2013-03-11 00:15:00,47.6,31.8,30.19,South,190,0.0,0.0,54,0.00,,---,0.00,VWS V14.01,2013-03-11 04:15:00,
2013-03-11 00:20:00,47.2,31.9,30.19,South,190,0.0,0.0,55,0.00,,---,0.00,VWS V14.01,2013-03-11 04:20:00,
2013-03-11 00:25:00,46.9,31.6,30.19,South,190,0.0,0.0,55,0.00,,---,0.00,VWS V14.01,2013-03-11 04:25:00,
2013-03-11 00:30:00,46.6,31.8,30.19,South,190,0.0,0.0,56,0.00,,---,0.00,VWS V14.01,2013-03-11 04:30:00,
2013-03-11 00:35:00,46.4,31.6,30.19,South,190,0.0,0.0,56,0.00,,---,0.00,VWS V14.01,2013-03-11 04:35:00,
2013-03-11 00:40:00,46.2,30.9,30.19,South,190,0.0,0.0,55,0.00,,---,0.00,VWS V14.01,2013-03-11 04:40:00,
2013-03-11 00:45:00,46.0,32.1,30.20,South,190,0.0,0.0,58,0.00,,---,0.00,VWS V14.01,2013-03-11 04:45:00,
2013-03-11 00:50:00,45.6,32.5,30.19,South,190,0.0,0.0,60,0.00,,---,0.00,VWS V14.01,2013-03-11 04:50:00,
2013-03-11 00:55:00,45.2,33.4,30.19,South,190,0.0,0.0,63,0.00,,---,0.00,VWS V14.01,2013-03-11 04:55:00,
2013-03-11 01:00:00,44.9,33.5,30.19,South,190,2.0,2.0,64,0.00,,---,0.00,VWS V14.01,2013-03-11 05:00:00,
2013-03-11 01:05:00,44.4,33.0,30.19,NW,324,0.0,4.0,64,0.00,,---,0.00,VWS V14.01,2013-03-11 05:05:00,
2013-03-11 01:10:00,44.2,33.2,30.18,NW,324,0.0,4.0,65,0.00,,---,0.00,VWS V14.01,2013-03-11 05:10:00,
2013-03-11 01:15:00,44.0,33.0,30.18,NW,324,0.0,4.0,65,0.00,,---,0.00,VWS V14.01,2013-03-11 05:15:00,
2013-03-11 01:20:00,43.7,33.1,30.18,NW,324,0.0,4.0,66,0.00,,---,0.00,VWS V14.01,2013-03-11 05:20:00,
2013-03-11 01:25:00,43.5,32.9,30.18,NW,324,0.0,4.0,66,0.00,,---,0.00,VWS V14.01,2013-03-11 05:25:00,
2013-03-11 01:30:00,43.3,32.0,30.18,NW,324,0.0,0.0,64,0.00,,---,0.00,VWS V14.01,2013-03-11 05:30:00,
2013-03-11 01:35:00,43.3,32.3,30.18,NW,324,0.0,0.0,65,0.00,,---,0.00,VWS V14.01,2013-03-11 05:35:00,
2013-03-11 01:40:00,43.2,32.2,30.18,NW,324,0.0,0.0,65,0.00,,---,0.00,VWS V14.01,2013-03-11 05:40:00,
2013-03-11 01:45:00,43.1,32.5,30.17,NW,324,0.0,0.0,66,0.00,,---,0.00,VWS V14.01,2013-03-11 05:45:00,
2013-03-11 01:50:00,42.9,32.7,30.17,NW,324,0.0,0.0,67,0.00,,---,0.00,VWS V14.01,2013-03-11 05:50:00,
2013-03-11 01:55:00,42.7,32.9,30.17,NW,324,0.0,0.0,68,0.00,,---,0.00,VWS V14.01,2013-03-11 05:55:00,
2013-03-11 02:00:00,42.4,32.6,30.18,NW,324,0.0,0.0,68,0.00,,---,0.00,VWS V14.01,2013-03-11 06:00:00,
2013-03-11 02:05:00,42.2,32.8,30.17,NW,324,0.0,1.0,69,0.00,,---,0.00,VWS V14.01,2013-03-11 06:05:00,
2013-03-11 02:10:00,41.9,32.8,30.17,NW,324,0.0,1.0,70,0.00,,---,0.00,VWS V14.01,2013-03-11 06:10:00,
2013-03-11 02:15:00,41.7,32.7,30.18,NW,324,0.0,1.0,70,0.00,,---,0.00,VWS V14.01,2013-03-11 06:15:00,
2013-03-11 02:20:00,41.6,32.6,30.18,NW,324,0.0,1.0,70,0.00,,---,0.00,VWS V14.01,2013-03-11 06:20:00,
2013-03-11 02:25:00,41.5,32.1,30.18,NW,324,0.0,1.0,69,0.00,,---,0.00,VWS V14.01,2013-03-11 06:25:00,
2013-03-11 02:30:00,41.5,31.7,30.18,NW,324,0.0,0.0,68,0.00,,---,0.00,VWS V14.01,2013-03-11 06:30:00,
2013-03-11 02:35:00,41.5,31.7,30.18,NW,324,0.0,0.0,68,0.00,,---,0.00,VWS V14.01,2013-03-11 06:35:00,
2013-03-11 02:40:00,41.4,31.6,30.17,NW,324,0.0,0.0,68,0.00,,---,0.00,VWS V14.01,2013-03-11 06:40:00,
2013-03-11 02:45:00,41.3,31.2,30.17,NW,324,0.0,0.0,67,0.00,,---,0.00,VWS V14.01,2013-03-11 06:45:00,
2013-03-11 02:50:00,41.3,31.5,30.17,NW,324,0.0,0.0,68,0.00,,---,0.00,VWS V14.01,2013-03-11 06:50:00,
2013-03-11 02:55:00,41.2,31.1,30.17,NW,324,0.0,0.0,67,0.00,,---,0.00,VWS V14.01,2013-03-11 06:55:00,
2013-03-11 03:00:00,41.0,30.9,30.17,NW,324,0.0,0.0,67,0.00,,---,0.00,VWS V14.01,2013-03-11 07:00:00,
2013-03-11 03:05:00,41.0,31.3,30.17,NW,324,0.0,0.0,68,0.00,,---,0.00,VWS V14.01,2013-03-11 07:05:00,
2013-03-11 03:10:00,40.9,31.5,30.17,NW,324,0.0,0.0,69,0.00,,---,0.00,VWS V14.01,2013-03-11 07:10:00,
2013-03-11 03:15:00,40.8,30.7,30.17,NW,324,0.0,0.0,67,0.00,,---,0.00,VWS V14.01,2013-03-11 07:15:00,
2013-03-11 03:20:00,40.8,31.4,30.17,NW,324,0.0,0.0,69,0.00,,---,0.00,VWS V14.01,2013-03-11 07:20:00,
2013-03-11 03:25:00,40.7,31.7,30.17,NW,324,0.0,0.0,70,0.00,,---,0.00,VWS V14.01,2013-03-11 07:25:00,
2013-03-11 03:30:00,40.9,28.5,30.16,NW,324,0.0,0.0,61,0.00,,---,0.00,VWS V14.01,2013-03-11 07:30:00,
2013-03-11 03:35:00,42.0,28.7,30.16,NW,324,0.0,0.0,59,0.00,,---,0.00,VWS V14.01,2013-03-11 07:35:00,
2013-03-11 03:40:00,42.3,32.1,30.16,NW,324,0.0,0.0,67,0.00,,---,0.00,VWS V14.01,2013-03-11 07:40:00,
2013-03-11 03:45:00,42.2,30.5,30.15,NW,324,0.0,0.0,63,0.00,,---,0.00,VWS V14.01,2013-03-11 07:45:00,
2013-03-11 03:50:00,41.8,31.7,30.16,NW,324,0.0,2.0,67,0.00,,---,0.00,VWS V14.01,2013-03-11 07:50:00,
2013-03-11 03:55:00,41.1,32.1,30.15,NW,324,0.0,2.0,70,0.00,,---,0.00,VWS V14.01,2013-03-11 07:55:00,
2013-03-11 04:00:00,40.4,30.0,30.15,NW,324,0.0,0.0,66,0.00,,---,0.00,VWS V14.01,2013-03-11 08:00:00,
2013-03-11 04:05:00,40.6,29.4,30.15,NW,324,0.0,2.0,64,0.00,,---,0.00,VWS V14.01,2013-03-11 08:05:00,
2013-03-11 04:10:00,41.2,28.8,30.15,NW,324,0.0,2.0,61,0.00,,---,0.00,VWS V14.01,2013-03-11 08:10:00,
2013-03-11 04:15:00,41.4,30.5,30.15,NW,324,0.0,2.0,65,0.00,,---,0.00,VWS V14.01,2013-03-11 08:15:00,
2013-03-11 04:20:00,41.5,28.3,30.14,NW,324,0.0,2.0,59,0.00,,---,0.00,VWS V14.01,2013-03-11 08:20:00,
2013-03-11 04:25:00,41.9,28.2,30.14,NW,324,0.0,2.0,58,0.00,,---,0.00,VWS V14.01,2013-03-11 08:25:00,
2013-03-11 04:30:00,42.0,29.9,30.14,NW,324,0.0,0.0,62,0.00,,---,0.00,VWS V14.01,2013-03-11 08:30:00,
2013-03-11 04:35:00,41.9,28.2,30.14,NW,324,0.0,0.0,58,0.00,,---,0.00,VWS V14.01,2013-03-11 08:35:00,
2013-03-11 04:40:00,41.8,29.4,30.14,NW,324,0.0,0.0,61,0.00,,---,0.00,VWS V14.01,2013-03-11 08:40:00,
2013-03-11 04:45:00,41.6,29.6,30.14,NW,324,0.0,0.0,62,0.00,,---,0.00,VWS V14.01,2013-03-11 08:45:00,
2013-03-11 04:50:00,41.3,28.5,30.14,NW,324,0.0,0.0,60,0.00,,---,0.00,VWS V14.01,2013-03-11 08:50:00,
2013-03-11 04:55:00,41.1,29.9,30.13,NW,324,0.0,0.0,64,0.00,,---,0.00,VWS V14.01,2013-03-11 08:55:00,
2013-03-11 05:00:00,40.8,29.6,30.13,NW,324,0.0,0.0,64,0.00,,---,0.00,VWS V14.01,2013-03-11 09:00:00,
2013-03-11 05:05:00,40.3,30.6,30.13,NW,324,0.0,0.0,68,0.00,,---,0.00,VWS V14.01,2013-03-11 09:05:00,
2013-03-11 05:10:00,39.6,30.6,30.13,NW,324,0.0,0.0,70,0.00,,---,0.00,VWS V14.01,2013-03-11 09:10:00,
2013-03-11 05:15:00,39.0,30.1,30.13,NW,324,0.0,0.0,70,0.00,,---,0.00,VWS V14.01,2013-03-11 09:15:00,
2013-03-11 05:20:00,38.5,29.9,30.12,NW,324,0.0,0.0,71,0.00,,---,0.00,VWS V14.01,2013-03-11 09:20:00,
2013-03-11 05:25:00,38.2,29.6,30.13,NW,324,0.0,0.0,71,0.00,,---,0.00,VWS V14.01,2013-03-11 09:25:00,
2013-03-11 05:30:00,38.0,29.8,30.12,NW,324,0.0,0.0,72,0.00,,---,0.00,VWS V14.01,2013-03-11 09:30:00,
2013-03-11 05:35:00,38.2,28.9,30.12,NW,324,0.0,0.0,69,0.00,,---,0.00,VWS V14.01,2013-03-11 09:35:00,
2013-03-11 05:40:00,38.8,29.9,30.12,NW,324,0.0,0.0,70,0.00,,---,0.00,VWS V14.01,2013-03-11 09:40:00,
2013-03-11 05:45:00,38.8,30.9,30.12,NW,324,0.0,0.0,73,0.00,,---,0.00,VWS V14.01,2013-03-11 09:45:00,
2013-03-11 05:50:00,38.5,30.6,30.12,NW,324,0.0,0.0,73,0.00,,---,0.00,VWS V14.01,2013-03-11 09:50:00,
2013-03-11 05:55:00,38.3,30.4,30.13,NW,324,0.0,0.0,73,0.00,,---,0.00,VWS V14.01,2013-03-11 09:55:00,
2013-03-11 06:00:00,38.0,30.5,30.13,NW,324,0.0,0.0,74,0.00,,---,0.00,VWS V14.01,2013-03-11 10:00:00,
2013-03-11 06:05:00,37.7,30.2,30.13,NW,324,0.0,0.0,74,0.00,,---,0.00,VWS V14.01,2013-03-11 10:05:00,
2013-03-11 06:10:00,37.4,30.2,30.13,NW,324,0.0,0.0,75,0.00,,---,0.00,VWS V14.01,2013-03-11 10:10:00,
2013-03-11 06:15:00,37.2,30.4,30.13,NW,324,0.0,0.0,76,0.00,,---,0.00,VWS V14.01,2013-03-11 10:15:00,
2013-03-11 06:20:00,37.0,30.5,30.13,NW,324,0.0,0.0,77,0.00,,---,0.00,VWS V14.01,2013-03-11 10:20:00,
2013-03-11 06:25:00,36.7,30.2,30.13,NW,324,0.0,0.0,77,0.00,,---,0.00,VWS V14.01,2013-03-11 10:25:00,
2013-03-11 06:30:00,36.7,29.9,30.12,NW,324,0.0,0.0,76,0.00,,---,0.00,VWS V14.01,2013-03-11 10:30:00,
2013-03-11 06:35:00,37.2,29.4,30.13,NW,324,0.0,0.0,73,0.00,,---,0.00,VWS V14.01,2013-03-11 10:35:00,
2013-03-11 06:40:00,37.5,30.0,30.12,NW,324,0.0,0.0,74,0.00,,---,0.00,VWS V14.01,2013-03-11 10:40:00,
2013-03-11 06:45:00,37.6,30.1,30.12,NW,324,0.0,0.0,74,0.00,,---,0.00,VWS V14.01,2013-03-11 10:45:00,
2013-03-11 06:50:00,37.5,30.3,30.12,NW,324,0.0,0.0,75,0.00,,---,0.00,VWS V14.01,2013-03-11 10:50:00,
2013-03-11 06:55:00,37.3,30.1,30.12,NW,324,0.0,0.0,75,0.00,,---,0.00,VWS V14.01,2013-03-11 10:55:00,
2013-03-11 07:00:00,37.0,29.8,30.12,NW,324,0.0,0.0,75,0.00,,---,0.00,VWS V14.01,2013-03-11 11:00:00,
2013-03-11 07:05:00,36.8,30.0,30.12,NW,324,0.0,0.0,76,0.00,,---,0.00,VWS V14.01,2013-03-11 11:05:00,
2013-03-11 07:10:00,36.5,30.0,30.12,NW,324,0.0,0.0,77,0.00,,---,0.00,VWS V14.01,2013-03-11 11:10:00,
2013-03-11 07:15:00,36.2,30.0,30.12,NW,324,0.0,0.0,78,0.00,,---,0.00,VWS V14.01,2013-03-11 11:15:00,
2013-03-11 07:20:00,35.9,30.0,30.13,NW,324,0.0,0.0,79,0.00,,---,0.00,VWS V14.01,2013-03-11 11:20:00,
2013-03-11 07:25:00,35.7,29.8,30.13,NW,324,0.0,0.0,79,0.00,,---,0.00,VWS V14.01,2013-03-11 11:25:00,
2013-03-11 07:30:00,35.7,29.5,30.13,NW,324,0.0,0.0,78,0.00,,---,0.00,VWS V14.01,2013-03-11 11:30:00,
2013-03-11 07:35:00,35.7,29.5,30.13,NW,324,0.0,0.0,78,0.00,,---,0.00,VWS V14.01,2013-03-11 11:35:00,
2013-03-11 07:40:00,35.8,29.9,30.13,NW,324,0.0,0.0,79,0.00,,---,0.00,VWS V14.01,2013-03-11 11:40:00,
2013-03-11 07:45:00,35.7,30.1,30.13,NW,324,0.0,0.0,80,0.00,,---,0.00,VWS V14.01,2013-03-11 11:45:00,
2013-03-11 07:50:00,35.6,30.0,30.13,NW,324,0.0,0.0,80,0.00,,---,0.00,VWS V14.01,2013-03-11 11:50:00,
2013-03-11 07:55:00,35.6,29.7,30.13,NW,324,0.0,0.0,79,0.00,,---,0.00,VWS V14.01,2013-03-11 11:55:00,
2013-03-11 08:00:00,35.6,30.0,30.12,NW,324,0.0,0.0,80,0.00,,---,0.00,VWS V14.01,2013-03-11 12:00:00,
2013-03-11 08:05:00,35.5,29.6,30.12,NW,324,0.0,0.0,79,0.00,,---,0.00,VWS V14.01,2013-03-11 12:05:00,
2013-03-11 08:10:00,35.6,29.4,30.12,NW,324,0.0,0.0,78,0.00,,---,0.00,VWS V14.01,2013-03-11 12:10:00,
2013-03-11 08:15:00,35.8,29.9,30.12,NW,324,0.0,0.0,79,0.00,,---,0.00,VWS V14.01,2013-03-11 12:15:00,
2013-03-11 08:20:00,36.2,29.4,30.12,NW,324,0.0,0.0,76,0.00,,---,0.00,VWS V14.01,2013-03-11 12:20:00,
2013-03-11 08:25:00,36.9,30.0,30.12,NW,324,0.0,0.0,76,0.00,,---,0.00,VWS V14.01,2013-03-11 12:25:00,
2013-03-11 08:30:00,37.3,30.4,30.12,NW,324,0.0,0.0,76,0.00,,---,0.00,VWS V14.01,2013-03-11 12:30:00,
2013-03-11 08:35:00,37.5,31.0,30.12,NW,324,0.0,0.0,77,0.00,,---,0.00,VWS V14.01,2013-03-11 12:35:00,
2013-03-11 08:40:00,37.7,30.5,30.12,NW,324,0.0,0.0,75,0.00,,---,0.00,VWS V14.01,2013-03-11 12:40:00,
2013-03-11 08:45:00,38.3,30.8,30.12,NW,324,0.0,0.0,74,0.00,,---,0.00,VWS V14.01,2013-03-11 12:45:00,
2013-03-11 08:50:00,38.9,29.6,30.12,NW,324,0.0,0.0,69,0.00,,---,0.00,VWS V14.01,2013-03-11 12:50:00,
2013-03-11 08:55:00,39.5,29.8,30.12,NW,324,0.0,0.0,68,0.00,,---,0.00,VWS V14.01,2013-03-11 12:55:00,
2013-03-11 09:00:00,40.0,29.6,30.12,NW,324,0.0,0.0,66,0.00,,---,0.00,VWS V14.01,2013-03-11 13:00:00,
2013-03-11 09:05:00,40.5,30.0,30.12,NW,324,0.0,0.0,66,0.00,,---,0.00,VWS V14.01,2013-03-11 13:05:00,
2013-03-11 09:10:00,40.9,30.4,30.13,NW,324,0.0,0.0,66,0.00,,---,0.00,VWS V14.01,2013-03-11 13:10:00,
2013-03-11 09:15:00,41.0,33.7,30.12,NW,324,0.0,0.0,75,0.00,,---,0.00,VWS V14.01,2013-03-11 13:15:00,
2013-03-11 09:20:00,40.9,31.9,30.12,NW,324,0.0,0.0,70,0.00,,---,0.00,VWS V14.01,2013-03-11 13:20:00,
2013-03-11 09:25:00,40.9,33.3,30.12,NW,324,0.0,0.0,74,0.00,,---,0.00,VWS V14.01,2013-03-11 13:25:00,
2013-03-11 09:30:00,40.9,33.9,30.13,NW,324,0.0,0.0,76,0.00,,---,0.00,VWS V14.01,2013-03-11 13:30:00,
2013-03-11 09:35:00,40.7,32.7,30.13,NW,324,0.0,0.0,73,0.00,,---,0.00,VWS V14.01,2013-03-11 13:35:00,
2013-03-11 09:40:00,40.6,32.6,30.13,NW,324,0.0,0.0,73,0.00,,---,0.00,VWS V14.01,2013-03-11 13:40:00,
2013-03-11 09:45:00,40.7,33.1,30.13,NW,324,0.0,0.0,74,0.00,,---,0.00,VWS V14.01,2013-03-11 13:45:00,
2013-03-11 09:50:00,40.9,32.2,30.13,North,360,0.0,0.0,71,0.00,,---,0.00,VWS V14.01,2013-03-11 13:50:00,
2013-03-11 09:55:00,41.1,32.1,30.13,North,360,0.0,0.0,70,0.00,,---,0.00,VWS V14.01,2013-03-11 13:55:00,
2013-03-11 10:00:00,41.6,32.2,30.13,North,360,0.0,0.0,69,0.00,,---,0.00,VWS V14.01,2013-03-11 14:00:00,
2013-03-11 10:05:00,42.0,32.2,30.13,North,360,0.0,0.0,68,0.00,,---,0.00,VWS V14.01,2013-03-11 14:05:00,
2013-03-11 10:10:00,42.5,30.4,30.13,North,360,0.0,0.0,62,0.00,,---,0.00,VWS V14.01,2013-03-11 14:10:00,
2013-03-11 10:15:00,43.1,30.6,30.13,North,360,0.0,0.0,61,0.00,,---,0.00,VWS V14.01,2013-03-11 14:15:00,
2013-03-11 10:20:00,43.6,30.2,30.13,North,360,0.0,0.0,59,0.00,,---,0.00,VWS V14.01,2013-03-11 14:20:00,
2013-03-11 10:25:00,44.2,31.2,30.13,North,360,0.0,0.0,60,0.00,,---,0.00,VWS V14.01,2013-03-11 14:25:00,
2013-03-11 10:30:00,44.6,32.0,30.13,North,360,0.0,0.0,61,0.00,,---,0.00,VWS V14.01,2013-03-11 14:30:00,
2013-03-11 10:35:00,45.1,32.9,30.12,North,360,0.0,2.0,62,0.00,,---,0.00,VWS V14.01,2013-03-11 14:35:00,
2013-03-11 10:40:00,45.4,31.5,30.12,North,360,2.0,2.0,58,0.00,,---,0.00,VWS V14.01,2013-03-11 14:40:00,
2013-03-11 10:45:00,45.6,31.7,30.11,NE,34,0.0,3.0,58,0.00,,---,0.00,VWS V14.01,2013-03-11 14:45:00,
2013-03-11 10:50:00,45.9,32.0,30.11,NE,34,0.0,3.0,58,0.00,,---,0.00,VWS V14.01,2013-03-11 14:50:00,
2013-03-11 10:55:00,46.3,31.0,30.12,NE,34,0.0,3.0,55,0.00,,---,0.00,VWS V14.01,2013-03-11 14:55:00,
2013-03-11 11:00:00,46.5,30.3,30.12,NE,34,0.0,0.0,53,0.00,,---,0.00,VWS V14.01,2013-03-11 15:00:00,
2013-03-11 11:05:00,46.8,31.0,30.12,NE,34,0.0,0.0,54,0.00,,---,0.00,VWS V14.01,2013-03-11 15:05:00,
2013-03-11 11:10:00,47.1,31.8,30.12,NE,36,2.0,2.0,55,0.00,,---,0.00,VWS V14.01,2013-03-11 15:10:00,
2013-03-11 11:15:00,47.3,31.0,30.12,NE,36,0.0,2.0,53,0.00,,---,0.00,VWS V14.01,2013-03-11 15:15:00,
2013-03-11 11:20:00,47.5,30.8,30.12,NE,36,0.0,2.0,52,0.00,,---,0.00,VWS V14.01,2013-03-11 15:20:00,
2013-03-11 11:25:00,47.6,30.9,30.11,NE,36,0.0,2.0,52,0.00,,---,0.00,VWS V14.01,2013-03-11 15:25:00,
2013-03-11 11:30:00,47.8,30.6,30.11,NE,40,0.0,1.0,51,0.00,,---,0.00,VWS V14.01,2013-03-11 15:30:00,
2013-03-11 11:35:00,48.0,30.3,30.11,NE,40,1.0,3.0,50,0.00,,---,0.00,VWS V14.01,2013-03-11 15:35:00,
2013-03-11 11:40:00,48.2,32.3,30.10,NE,40,0.0,3.0,54,0.00,,---,0.00,VWS V14.01,2013-03-11 15:40:00,
2013-03-11 11:45:00,48.5,31.2,30.10,ENE,70,1.0,3.0,51,0.00,,---,0.00,VWS V14.01,2013-03-11 15:45:00,
2013-03-11 11:50:00,48.9,31.6,30.09,ENE,70,1.0,3.0,51,0.00,,---,0.00,VWS V14.01,2013-03-11 15:50:00,
2013-03-11 11:55:00,49.3,31.5,30.09,SSE,147,5.0,5.0,50,0.00,,---,0.00,VWS V14.01,2013-03-11 15:55:00,
2013-03-11 12:00:00,49.8,32.4,30.10,SSE,162,1.0,4.0,51,0.00,,---,0.00,VWS V14.01,2013-03-11 16:00:00,
2013-03-11 12:05:00,50.5,35.0,30.10,ESE,121,0.0,4.0,55,0.00,,---,0.00,VWS V14.01,2013-03-11 16:05:00,
2013-03-11 12:10:00,51.3,34.3,30.09,SE,136,0.0,5.0,52,0.00,,---,0.00,VWS V14.01,2013-03-11 16:10:00,
2013-03-11 12:15:00,52.0,36.3,30.09,SSE,154,10.0,10.0,55,0.00,,---,0.00,VWS V14.01,2013-03-11 16:15:00,
2013-03-11 12:20:00,52.6,39.5,30.09,SSE,167,10.0,10.0,61,0.00,,---,0.00,VWS V14.01,2013-03-11 16:20:00,
2013-03-11 12:25:00,53.0,42.0,30.09,SSE,163,16.0,16.0,66,0.00,,---,0.00,VWS V14.01,2013-03-11 16:25:00,
2013-03-11 12:30:00,53.2,42.5,30.09,SW,218,7.0,9.0,67,0.00,,---,0.00,VWS V14.01,2013-03-11 16:30:00,
2013-03-11 12:35:00,53.3,43.4,30.09,SSW,207,6.0,15.0,69,0.00,,---,0.00,VWS V14.01,2013-03-11 16:35:00,
2013-03-11 12:40:00,53.5,43.2,30.09,SW,217,1.0,15.0,68,0.00,,---,0.00,VWS V14.01,2013-03-11 16:40:00,
2013-03-11 12:45:00,53.5,43.6,30.08,SW,218,3.0,15.0,69,0.00,,---,0.00,VWS V14.01,2013-03-11 16:45:00,
2013-03-11 12:50:00,53.6,43.3,30.08,SW,223,2.0,15.0,68,0.00,,---,0.00,VWS V14.01,2013-03-11 16:50:00,
2013-03-11 12:55:00,53.6,42.9,30.08,WSW,240,7.0,15.0,67,0.00,,---,0.00,VWS V14.01,2013-03-11 16:55:00,
2013-03-11 13:00:00,53.5,43.2,30.07,South,175,0.0,1.0,68,0.00,,---,0.00,VWS V14.01,2013-03-11 17:00:00,
2013-03-11 13:05:00,53.5,42.8,30.07,SSW,206,4.0,9.0,67,0.00,,---,0.00,VWS V14.01,2013-03-11 17:05:00,
2013-03-11 13:10:00,53.6,42.9,30.06,SSE,165,4.0,11.0,67,0.00,,---,0.00,VWS V14.01,2013-03-11 17:10:00,
2013-03-11 13:15:00,53.6,42.9,30.06,SSW,206,3.0,11.0,67,0.00,,---,0.00,VWS V14.01,2013-03-11 17:15:00,
2013-03-11 13:20:00,53.6,42.9,30.06,WSW,242,1.0,11.0,67,0.00,,---,0.00,VWS V14.01,2013-03-11 17:20:00,
2013-03-11 13:25:00,53.5,42.8,30.05,South,188,0.0,11.0,67,0.00,,---,0.00,VWS V14.01,2013-03-11 17:25:00,
2013-03-11 13:30:00,53.6,42.5,30.05,South,169,0.0,2.0,66,0.00,,---,0.00,VWS V14.01,2013-03-11 17:30:00,
2013-03-11 13:35:00,53.7,43.0,30.05,SSE,147,2.0,7.0,67,0.00,,---,0.00,VWS V14.01,2013-03-11 17:35:00,
2013-03-11 13:40:00,53.8,43.5,30.05,South,171,9.0,10.0,68,0.00,,---,0.00,VWS V14.01,2013-03-11 17:40:00,
2013-03-11 13:45:00,53.8,43.5,30.05,South,190,3.0,12.0,68,0.00,,---,0.00,VWS V14.01,2013-03-11 17:45:00,
2013-03-11 13:50:00,53.8,43.5,30.04,SSW,196,2.0,12.0,68,0.00,,---,0.00,VWS V14.01,2013-03-11 17:50:00,
2013-03-11 13:55:00,53.9,43.6,30.04,South,187,0.0,12.0,68,0.00,,---,0.00,VWS V14.01,2013-03-11 17:55:00,
2013-03-11 14:00:00,54.0,43.7,30.04,South,190,2.0,2.0,68,0.00,,---,0.00,VWS V14.01,2013-03-11 18:00:00,
2013-03-11 14:05:00,54.0,43.7,30.04,South,184,3.0,8.0,68,0.00,,---,0.00,VWS V14.01,2013-03-11 18:05:00,
2013-03-11 14:10:00,54.1,44.2,30.04,South,182,0.0,8.0,69,0.00,,---,0.00,VWS V14.01,2013-03-11 18:10:00,
2013-03-11 14:15:00,54.1,45.0,30.04,SSW,202,2.0,-999.0,70,-99.99,,,0.00,weatherlink.com 1.10,2013-03-11 18:15:00,
2013-03-11 14:20:00,54.0,44.5,30.04,WSW,245,3.0,14.0,70,0.00,,---,0.00,VWS V14.01,2013-03-11 18:20:00,
2013-03-11 14:25:00,54.0,45.2,30.03,SW,216,5.0,14.0,72,0.00,,---,0.00,VWS V14.01,2013-03-11 18:25:00,
2013-03-11 14:30:00,54.0,45.2,30.03,South,182,0.0,0.0,72,0.00,,---,0.00,VWS V14.01,2013-03-11 18:30:00,
2013-03-11 14:34:00,54.0,45.5,30.02,SSW,206,2.0,7.0,73,0.00,,---,0.00,VWS V14.01,2013-03-11 18:34:00,
2013-03-11 14:39:00,54.2,45.8,30.02,South,182,1.0,7.0,73,0.00,,---,0.00,VWS V14.01,2013-03-11 18:39:00,
2013-03-11 14:45:00,54.4,45.6,30.02,SSW,198,3.0,7.0,72,0.00,,---,0.00,VWS V14.01,2013-03-11 18:45:00,
2013-03-11 14:49:00,54.4,45.6,30.02,SW,215,0.0,7.0,72,0.00,,---,0.00,VWS V14.01,2013-03-11 18:49:00,
2013-03-11 14:54:00,54.4,45.9,30.01,SSW,213,3.0,7.0,73,0.00,,---,0.00,VWS V14.01,2013-03-11 18:54:00,
2013-03-11 15:00:00,54.4,45.9,30.01,South,184,3.0,4.0,73,0.00,,---,0.00,VWS V14.01,2013-03-11 19:00:00,
2013-03-11 15:05:00,54.5,46.0,30.01,South,184,0.0,4.0,73,0.00,,---,0.00,VWS V14.01,2013-03-11 19:05:00,
2013-03-11 15:10:00,54.6,46.5,30.00,South,184,1.0,4.0,74,0.00,,---,0.00,VWS V14.01,2013-03-11 19:10:00,
2013-03-11 15:15:00,54.7,46.2,30.00,SSE,158,0.0,5.0,73,0.00,,---,0.00,VWS V14.01,2013-03-11 19:15:00,
2013-03-11 15:20:00,54.7,45.9,30.00,East,95,2.0,5.0,72,0.00,,---,0.00,VWS V14.01,2013-03-11 19:20:00,
2013-03-11 15:25:00,54.8,46.7,30.00,East,96,0.0,5.0,74,0.00,,---,0.00,VWS V14.01,2013-03-11 19:25:00,
2013-03-11 15:30:00,54.9,46.8,29.99,East,90,2.0,2.0,74,0.00,,---,0.00,VWS V14.01,2013-03-11 19:30:00,
2013-03-11 15:35:00,55.1,47.3,29.98,East,86,0.0,4.0,75,0.00,,---,0.00,VWS V14.01,2013-03-11 19:35:00,
2013-03-11 15:40:00,55.3,47.2,29.98,ESE,108,0.0,5.0,74,0.00,,---,0.00,VWS V14.01,2013-03-11 19:40:00,
2013-03-11 15:45:00,55.4,47.3,29.98,ESE,117,4.0,5.0,74,0.00,,---,0.00,VWS V14.01,2013-03-11 19:45:00,
2013-03-11 15:50:00,55.5,47.0,29.98,SE,132,0.0,5.0,73,0.00,,---,0.00,VWS V14.01,2013-03-11 19:50:00,
2013-03-11 15:55:00,55.5,47.0,29.97,SE,131,0.0,5.0,73,0.00,,---,0.00,VWS V14.01,2013-03-11 19:55:00,
2013-03-11 16:00:00,55.5,47.0,29.98,SE,131,0.0,0.0,73,0.00,,---,0.00,VWS V14.01,2013-03-11 20:00:00,
2013-03-11 16:05:00,55.5,47.0,29.98,SE,131,2.0,5.0,73,0.00,,---,0.00,VWS V14.01,2013-03-11 20:05:00,
2013-03-11 16:10:00,55.6,47.1,29.97,SE,124,2.0,5.0,73,0.00,,---,0.00,VWS V14.01,2013-03-11 20:10:00,
2013-03-11 16:15:00,55.7,47.2,29.97,SE,128,2.0,5.0,73,0.00,,---,0.00,VWS V14.01,2013-03-11 20:15:00,
2013-03-11 16:20:00,55.7,47.2,29.97,SE,128,1.0,5.0,73,0.00,,---,0.00,VWS V14.01,2013-03-11 20:20:00,
2013-03-11 16:25:00,55.7,47.2,29.97,East,89,0.0,5.0,73,0.00,,---,0.00,VWS V14.01,2013-03-11 20:25:00,
2013-03-11 16:30:00,55.8,47.7,29.97,East,89,1.0,1.0,74,0.00,,---,0.00,VWS V14.01,2013-03-11 20:30:00,
2013-03-11 16:35:00,55.8,47.3,29.97,East,89,1.0,3.0,73,0.00,,---,0.00,VWS V14.01,2013-03-11 20:35:00,
2013-03-11 16:40:00,55.8,47.3,29.97,East,89,1.0,3.0,73,0.00,,---,0.00,VWS V14.01,2013-03-11 20:40:00,
2013-03-11 16:45:00,55.8,47.7,29.96,East,89,0.0,3.0,74,0.00,,---,0.00,VWS V14.01,2013-03-11 20:45:00,
2013-03-11 16:50:00,55.7,47.2,29.95,ENE,76,5.0,5.0,73,0.00,,---,0.00,VWS V14.01,2013-03-11 20:50:00,
2013-03-11 16:55:00,55.6,47.5,29.95,ENE,69,1.0,5.0,74,0.00,,---,0.00,VWS V14.01,2013-03-11 20:55:00,
2013-03-11 17:00:00,55.7,47.5,29.95,ENE,69,0.0,1.0,74,0.00,,---,0.00,VWS V14.01,2013-03-11 21:00:00,
2013-03-11 17:05:00,55.6,47.5,29.94,ENE,69,1.0,3.0,74,0.00,,---,0.00,VWS V14.01,2013-03-11 21:05:00,
2013-03-11 17:10:00,55.6,47.5,29.94,ENE,69,0.0,3.0,74,0.00,,---,0.00,VWS V14.01,2013-03-11 21:10:00,
2013-03-11 17:15:00,55.5,47.7,29.94,ENE,69,0.0,3.0,75,0.00,,---,0.00,VWS V14.01,2013-03-11 21:15:00,
2013-03-11 17:20:00,55.5,47.4,29.94,ENE,69,0.0,3.0,74,0.00,,---,0.00,VWS V14.01,2013-03-11 21:20:00,
2013-03-11 17:25:00,55.5,47.7,29.94,ENE,69,0.0,3.0,75,0.00,,---,0.00,VWS V14.01,2013-03-11 21:25:00,
2013-03-11 17:30:00,55.5,47.7,29.93,ENE,69,0.0,0.0,75,0.00,,---,0.00,VWS V14.01,2013-03-11 21:30:00,
2013-03-11 17:35:00,55.6,47.8,29.93,ENE,69,0.0,1.0,75,0.00,,---,0.00,VWS V14.01,2013-03-11 21:35:00,
2013-03-11 17:40:00,55.6,47.8,29.93,ENE,69,0.0,1.0,75,0.00,,---,0.00,VWS V14.01,2013-03-11 21:40:00,
2013-03-11 17:45:00,55.6,47.8,29.93,ENE,69,3.0,3.0,75,0.00,,---,0.00,VWS V14.01,2013-03-11 21:45:00,
2013-03-11 17:50:00,55.6,47.8,29.92,ENE,69,1.0,3.0,75,0.00,,---,0.00,VWS V14.01,2013-03-11 21:50:00,
2013-03-11 17:55:00,55.5,48.1,29.92,ENE,69,0.0,3.0,76,0.00,,---,0.00,VWS V14.01,2013-03-11 21:55:00,
2013-03-11 18:00:00,55.5,48.1,29.92,ENE,69,0.0,0.0,76,0.00,,---,0.00,VWS V14.01,2013-03-11 22:00:00,
2013-03-11 18:05:00,55.5,48.1,29.93,ENE,69,0.0,0.0,76,0.00,,---,0.00,VWS V14.01,2013-03-11 22:05:00,
2013-03-11 18:10:00,55.4,48.0,29.94,ENE,69,0.0,0.0,76,0.00,,---,0.00,VWS V14.01,2013-03-11 22:10:00,
2013-03-11 18:15:00,55.5,48.1,29.93,ENE,69,0.0,0.0,76,0.00,,---,0.00,VWS V14.01,2013-03-11 22:15:00,
2013-03-11 18:20:00,55.4,48.3,29.92,ENE,69,0.0,0.0,77,0.00,,---,0.00,VWS V14.01,2013-03-11 22:20:00,
2013-03-11 18:25:00,55.4,48.3,29.92,ENE,69,0.0,0.0,77,0.00,,---,0.00,VWS V14.01,2013-03-11 22:25:00,
2013-03-11 18:30:00,55.3,48.2,29.92,ENE,69,0.0,0.0,77,0.00,,---,0.00,VWS V14.01,2013-03-11 22:30:00,
2013-03-11 18:35:00,55.2,48.1,29.92,ENE,69,0.0,1.0,77,0.00,,---,0.00,VWS V14.01,2013-03-11 22:35:00,
2013-03-11 18:40:00,55.1,48.0,29.92,ENE,69,0.0,1.0,77,0.00,,---,0.00,VWS V14.01,2013-03-11 22:40:00,
2013-03-11 18:45:00,55.0,47.9,29.92,ENE,69,0.0,1.0,77,0.00,,---,0.00,VWS V14.01,2013-03-11 22:45:00,
2013-03-11 18:50:00,55.0,48.3,29.91,ENE,69,0.0,1.0,78,0.00,,---,0.00,VWS V14.01,2013-03-11 22:50:00,
2013-03-11 18:55:00,54.8,48.1,29.91,ENE,69,0.0,1.0,78,0.00,,---,0.00,VWS V14.01,2013-03-11 22:55:00,
2013-03-11 19:00:00,54.8,48.1,29.91,ENE,69,0.0,0.0,78,0.00,,---,0.00,VWS V14.01,2013-03-11 23:00:00,
2013-03-11 19:05:00,54.7,48.3,29.90,ENE,69,0.0,3.0,79,0.00,,---,0.00,VWS V14.01,2013-03-11 23:05:00,
2013-03-11 19:10:00,54.5,48.1,29.90,ENE,69,0.0,3.0,79,0.00,,---,0.00,VWS V14.01,2013-03-11 23:10:00,
2013-03-11 19:15:00,54.3,47.9,29.92,ENE,69,2.0,3.0,79,0.00,,---,0.00,VWS V14.01,2013-03-11 23:15:00,
2013-03-11 19:20:00,54.2,47.8,29.92,NE,53,3.0,4.0,79,0.00,,---,0.00,VWS V14.01,2013-03-11 23:20:00,
2013-03-11 19:25:00,54.0,47.6,29.92,NNW,331,2.0,4.0,79,0.00,,---,0.00,VWS V14.01,2013-03-11 23:25:00,
2013-03-11 19:30:00,53.8,47.5,29.92,NW,304,4.0,5.0,79,0.00,,---,0.00,VWS V14.01,2013-03-11 23:30:00,
2013-03-11 19:35:00,53.7,47.3,29.92,NW,304,0.0,6.0,79,0.00,,---,0.00,VWS V14.01,2013-03-11 23:35:00,
2013-03-11 19:40:00,53.7,47.3,29.92,NW,304,3.0,6.0,79,0.00,,---,0.00,VWS V14.01,2013-03-11 23:40:00,
2013-03-11 19:45:00,53.7,47.3,29.92,NW,304,1.0,6.0,79,0.00,,---,0.00,VWS V14.01,2013-03-11 23:45:00,
2013-03-11 19:50:00,53.7,47.3,29.92,NW,304,0.0,6.0,79,0.00,,---,0.00,VWS V14.01,2013-03-11 23:50:00,
2013-03-11 19:55:00,53.8,47.5,29.91,NW,304,0.0,6.0,79,0.00,,---,0.00,VWS V14.01,2013-03-11 23:55:00,
2013-03-11 20:00:00,53.7,47.3,29.91,NW,304,1.0,2.0,79,0.00,,---,0.00,VWS V14.01,2013-03-12 00:00:00,
2013-03-11 20:05:00,53.7,47.7,29.92,NW,304,0.0,2.0,80,0.00,,---,0.00,VWS V14.01,2013-03-12 00:05:00,
2013-03-11 20:10:00,53.6,47.6,29.92,NW,304,0.0,2.0,80,0.00,,---,0.00,VWS V14.01,2013-03-12 00:10:00,
2013-03-11 20:15:00,53.5,47.5,29.92,NW,304,0.0,2.0,80,0.00,,---,0.00,VWS V14.01,2013-03-12 00:15:00,
2013-03-11 20:20:00,53.3,47.6,29.92,NW,304,0.0,2.0,81,0.00,,---,0.00,VWS V14.01,2013-03-12 00:20:00,
2013-03-11 20:25:00,53.2,47.5,29.91,NW,304,0.0,2.0,81,0.00,,---,0.00,VWS V14.01,2013-03-12 00:25:00,
2013-03-11 20:30:00,53.1,47.4,29.90,NW,304,1.0,2.0,81,0.00,,---,0.00,VWS V14.01,2013-03-12 00:30:00,
2013-03-11 20:35:00,52.9,47.2,29.91,NW,304,0.0,3.0,81,0.00,,---,0.00,VWS V14.01,2013-03-12 00:35:00,
2013-03-11 20:40:00,52.8,47.5,29.90,NW,304,0.0,3.0,82,0.00,,---,0.00,VWS V14.01,2013-03-12 00:40:00,
2013-03-11 20:45:00,52.7,47.4,29.90,NW,304,0.0,3.0,82,0.00,,---,0.00,VWS V14.01,2013-03-12 00:45:00,
2013-03-11 20:50:00,52.6,47.3,29.90,NW,304,0.0,3.0,82,0.00,,---,0.00,VWS V14.01,2013-03-12 00:50:00,
2013-03-11 20:55:00,52.7,47.7,29.90,NW,304,0.0,3.0,83,0.00,,---,0.00,VWS V14.01,2013-03-12 00:55:00,
2013-03-11 21:00:00,52.8,47.8,29.90,NW,304,0.0,1.0,83,0.00,,---,0.00,VWS V14.01,2013-03-12 01:00:00,
2013-03-11 21:05:00,52.8,47.8,29.90,WNW,298,0.0,3.0,83,0.00,,---,0.00,VWS V14.01,2013-03-12 01:05:00,
2013-03-11 21:10:00,52.9,48.5,29.89,SSE,158,4.0,7.0,85,0.00,,---,0.00,VWS V14.01,2013-03-12 01:10:00,
2013-03-11 21:15:00,54.3,49.6,29.89,South,184,3.0,11.0,84,0.00,,---,0.00,VWS V14.01,2013-03-12 01:15:00,
2013-03-11 21:20:00,55.4,50.0,29.89,SE,146,5.0,11.0,82,0.00,,---,0.00,VWS V14.01,2013-03-12 01:20:00,
2013-03-11 21:25:00,56.3,49.9,29.88,SSW,200,3.0,11.0,79,0.00,,---,0.00,VWS V14.01,2013-03-12 01:25:00,
2013-03-11 21:30:00,57.0,50.2,29.88,ESE,113,4.0,4.0,78,0.00,,---,0.00,VWS V14.01,2013-03-12 01:30:00,
2013-03-11 21:35:00,57.6,50.5,29.87,SE,132,2.0,11.0,77,0.00,,---,0.00,VWS V14.01,2013-03-12 01:35:00,
2013-03-11 21:40:00,57.9,50.4,29.87,SSE,154,8.0,11.0,76,0.00,,---,0.00,VWS V14.01,2013-03-12 01:40:00,
2013-03-11 21:45:00,58.2,50.3,29.88,ESE,120,4.0,11.0,75,0.00,,---,0.00,VWS V14.01,2013-03-12 01:45:00,
2013-03-11 21:50:00,58.5,50.6,29.88,SSE,161,2.0,13.0,75,0.00,,---,0.00,VWS V14.01,2013-03-12 01:50:00,
2013-03-11 21:55:00,58.7,50.5,29.88,SSE,153,5.0,13.0,74,0.00,,---,0.00,VWS V14.01,2013-03-12 01:55:00,
2013-03-11 22:00:00,58.9,50.6,29.88,South,178,7.0,10.0,74,0.00,,---,0.00,VWS V14.01,2013-03-12 02:00:00,
2013-03-11 22:05:00,59.0,50.7,29.88,SSE,161,2.0,12.0,74,0.00,,---,0.00,VWS V14.01,2013-03-12 02:05:00,
2013-03-11 22:10:00,59.2,50.9,29.88,SSE,154,4.0,15.0,74,0.00,,---,0.00,VWS V14.01,2013-03-12 02:10:00,
2013-03-11 22:15:00,59.3,51.0,29.88,South,175,4.0,15.0,74,0.00,,---,0.00,VWS V14.01,2013-03-12 02:15:00,
2013-03-11 22:20:00,59.3,51.0,29.88,SSE,165,11.0,15.0,74,0.00,,---,0.00,VWS V14.01,2013-03-12 02:20:00,
2013-03-11 22:25:00,59.2,50.9,29.88,SSE,151,1.0,15.0,74,0.00,,---,0.00,VWS V14.01,2013-03-12 02:25:00,
2013-03-11 22:30:00,59.2,50.9,29.88,South,188,2.0,7.0,74,0.00,,---,0.00,VWS V14.01,2013-03-12 02:30:00,
2013-03-11 22:35:00,59.3,51.0,29.88,South,184,3.0,11.0,74,0.00,,---,0.00,VWS V14.01,2013-03-12 02:35:00,
2013-03-11 22:40:00,59.3,51.0,29.88,SE,140,4.0,11.0,74,0.00,,---,0.00,VWS V14.01,2013-03-12 02:40:00,
2013-03-11 22:45:00,59.3,51.0,29.88,SSE,163,6.0,17.0,74,0.00,,---,0.00,VWS V14.01,2013-03-12 02:45:00,
2013-03-11 22:50:00,59.3,51.0,29.88,South,190,2.0,17.0,74,0.00,,---,0.00,VWS V14.01,2013-03-12 02:50:00,
2013-03-11 22:55:00,59.3,51.0,29.88,SSE,157,8.0,17.0,74,0.00,,---,0.00,VWS V14.01,2013-03-12 02:55:00,
2013-03-11 23:00:00,59.3,51.0,29.87,SSW,194,4.0,7.0,74,0.00,,---,0.00,VWS V14.01,2013-03-12 03:00:00,
2013-03-11 23:05:00,59.2,51.3,29.87,South,176,1.0,9.0,75,0.00,,---,0.00,VWS V14.01,2013-03-12 03:05:00,
2013-03-11 23:10:00,59.2,51.3,29.87,SSE,164,4.0,12.0,75,0.00,,---,0.00,VWS V14.01,2013-03-12 03:10:00,
2013-03-11 23:15:00,59.1,51.2,29.87,SSE,159,6.0,12.0,75,0.00,,---,0.00,VWS V14.01,2013-03-12 03:15:00,
2013-03-11 23:20:00,59.1,51.2,29.87,SSE,167,9.0,13.0,75,0.00,,---,0.00,VWS V14.01,2013-03-12 03:20:00,
2013-03-11 23:25:00,59.0,51.1,29.87,SSE,161,2.0,13.0,75,0.00,,---,0.00,VWS V14.01,2013-03-12 03:25:00,
2013-03-11 23:30:00,59.0,51.5,29.87,SSE,159,4.0,7.0,76,0.00,,---,0.00,VWS V14.01,2013-03-12 03:30:00,
2013-03-11 23:35:00,58.9,51.4,29.87,South,179,6.0,8.0,76,0.00,,---,0.00,VWS V14.01,2013-03-12 03:35:00,
2013-03-11 23:40:00,58.9,51.4,29.87,SSE,166,9.0,13.0,76,0.00,,---,0.00,VWS V14.01,2013-03-12 03:40:00,
2013-03-11 23:45:00,58.8,51.6,29.87,South,174,11.0,13.0,77,0.00,,---,0.00,VWS V14.01,2013-03-12 03:45:00,
2013-03-11 23:50:00,58.8,51.6,29.87,South,188,9.0,16.0,77,0.00,,---,0.00,VWS V14.01,2013-03-12 03:50:00,
2013-03-11 23:55:00,58.7,51.9,29.87,SSE,159,6.0,16.0,78,0.00,,---,0.00,VWS V14.01,2013-03-12 03:55:00,